Content
SEND FEEDBACK

Daily
Averages
Monthly
Summary
Libya

TRIPOLI, LIBYA


Home > Africa > Libya
Elevation: 266 feet     Latitude: 32 40N     Longitude: 013 09E

WEATHER
 
SELECT A DAY
Number of Records: 167,294;   Date Range: 7/1/96 - 10/29/14
 
SHARE

PRINT THIS DATA

[ ← Previous Day ]
WEATHER ALMANAC - FEBRUARY 5, 2013
[ Next Day → ]
[ °C ]   °F
Weather ElementAverageHighLow
Temperature53.3 °F59 °F (11:50 am)48.2 °F (12:50 am)
Dewpoint46 °F50 °F (2:50 pm)39.2 °F (11:50 am)
Humidity75.6 %88 % (3:50 pm)48 % (11:50 am)
Barometer30.12 in30.19 in (10:00 am)30.06 in (4:20 am)
Wind Speed13.2 mph20.7 mph (4:00 am)
Weather ElementAverage
Visibility4.8 mi
Wind DirectionWNW (285.1 °)

Weather ElementTotal
Precipitation---
Heating Degree Days11.4 (Base 65)
Growing Degree Days3.6 (Base 50)
Averaged from 43 records on February 5, 2013
WEATHER CONDITIONS BREAKOUT
WIND DIRECTION BREAKOUT
WEATHER BY HOUR - FEBRUARY 5, 2013
[ °C ]   °F
Local TimeTemperatureDewpointHumidityBarometerVisibilityWind DirectionWind SpeedGust SpeedPrecipitationEventsConditions
12:50 AM48.2 °F42.8 °F82 %30.09 in3.1 miWNW (300°)15.0 mphRainLight Rain
1:00 AM50.0 °F44.0 °F73 %30.14 in3.0 miNNW (330°)11.5 mphRainLight Rain
1:20 AM50.0 °F44.6 °F82 %30.12 in3.1 miNW (320°)13.8 mphRainLight Rain
1:51 AM50.0 °F42.8 °F76 %30.09 in5.0 miNW (310°)12.7 mphMostly Cloudy
2:20 AM51.8 °F42.8 °F71 %30.09 in5.0 miNNW (330°)16.1 mphRainLight Rain
2:47 AM50.0 °F44.6 °F82 %30.09 in3.1 miNNW (340°)19.6 mphRainRain
3:23 AM50.0 °F46.4 °F87 %30.09 in1.9 miNNW (340°)16.1 mphRainRain
3:50 AM50.0 °F46.4 °F87 %30.09 in1.9 miNW (320°)16.1 mphRainLight Rain
4:00 AM50.0 °F46.0 °F81 %30.11 in2.0 miNNW (330°)20.7 mphRainLight Rain
4:20 AM50.0 °F46.4 °F87 %30.06 in1.9 miNNW (330°)17.3 mphRainLight Rain
4:41 AM50.0 °F46.4 °F87 %30.06 in3.7 miNW (320°)15.0 mphRainLight Rain
4:50 AM51.8 °F46.4 °F82 %30.06 in3.7 miNW (320°)15.0 mphMostly Cloudy
5:20 AM51.8 °F46.4 °F82 %30.06 in3.7 miNNW (330°)15.0 mphScattered Clouds
5:48 AM51.8 °F44.6 °F76 %30.06 in3.7 miNNW (340°)19.6 mphRainLight Rain
6:20 AM53.6 °F44.6 °F72 %30.09 in3.7 miNNW (340°)13.8 mphRainLight Rain
6:50 AM51.8 °F44.6 °F76 %30.12 in3.7 miNNW (340°)13.8 mphMostly Cloudy
7:00 AM52.0 °F45.0 °F69 %30.13 in4.0 miNNW (340°)13.8 mphRainLight Rain
7:20 AM51.8 °F44.6 °F76 %30.12 in3.7 miNorth (350°)11.5 mphMostly Cloudy
7:50 AM51.8 °F44.6 °F76 %30.12 in3.7 miNNE (30°)11.5 mphRainLight Rain
8:50 AM55.4 °F46.4 °F72 %30.15 in6.2 miVariable2.3 mphMostly Cloudy
9:50 AM53.6 °F46.4 °F77 %30.15 in6.2 miNorth (360°)8.1 mphMostly Cloudy
10:00 AM54.0 °F47.0 °F69 %30.19 in6.0 miNorth8.1 mphMostly Cloudy
10:50 AM57.2 °F44.6 °F63 %30.18 in6.2 miNW (320°)19.6 mphMostly Cloudy
11:50 AM59.0 °F39.2 °F48 %30.15 in6.2 miNNW (330°)17.3 mphMostly Cloudy
12:50 PM59.0 °F46.4 °F63 %30.15 in6.2 miNW (320°)16.1 mphMostly Cloudy
1:00 PM58.0 °F46.0 °F55 %30.17 in6.0 miNW (320°)16.1 mph
1:50 PM59.0 °F46.4 °F63 %30.12 in6.2 miNW (320°)18.4 mphMostly Cloudy
2:30 PM57.2 °F48.2 °F72 %30.12 in4.3 miNW (310°)15.0 mphRainLight Rain Showers
2:50 PM55.4 °F50.0 °F82 %30.12 in4.3 miWNW (290°)17.3 mphRainRain
3:16 PM55.4 °F50.0 °F82 %30.12 in4.3 miWNW (290°)17.3 mphRainLight Rain Showers
3:50 PM53.6 °F50.0 °F88 %30.12 in6.2 miWNW (290°)13.8 mphMostly Cloudy
4:00 PM54.0 °F49.0 °F79 %30.17 in6.0 miWNW (290°)13.8 mphMostly Cloudy
4:50 PM55.4 °F48.2 °F77 %30.15 in6.2 miNW (310°)18.4 mphMostly Cloudy
5:50 PM55.4 °F46.4 °F72 %30.15 in6.2 miWNW (300°)11.5 mphMostly Cloudy
6:50 PM53.6 °F48.2 °F82 %30.15 in6.2 miWest (270°)6.9 mphMostly Cloudy
7:00 PM54.0 °F48.0 °F72 %30.17 in6.0 miWest (270°)6.9 mphMostly Cloudy
7:50 PM53.6 °F46.4 °F77 %30.15 in6.2 miWest (260°)6.9 mphMostly Cloudy
8:50 PM53.6 °F46.4 °F77 %30.15 in6.2 miWSW (240°)6.9 mphMostly Cloudy
9:50 PM53.6 °F46.4 °F77 %30.15 in6.2 miWSW (240°)8.1 mphMostly Cloudy
10:00 PM53.0 °F46.0 °F69 %30.17 in6.0 miWSW (240°)8.1 mphPartly Cloudy
10:20 PM53.6 °F46.4 °F77 %30.12 in6.2 miWSW (240°)6.9 mphMostly Cloudy
10:50 PM53.6 °F46.4 °F77 %30.12 in6.2 miWSW (240°)8.1 mphMostly Cloudy
11:50 PM53.6 °F46.4 °F77 %30.12 in6.2 miWSW (250°)9.2 mphMostly Cloudy
Hourly data recorded from HLLT, located miles away from Tripoli, Libya







STORIES FROM OUR PARTNERS